Date String (YYYY-MM-DD hh:mm:ss) UTC,Instrument flags,absolute air pressure of the measurement (hPa),sample flow rate (lpm),inlet stack bypass flow (lpm),air temperature of the measurement (°C),ambient temperature measured by the external sensor (°C),aerosol sample conditioner tube jacket temperature (°C),OPC LED temperature (°C),internal box temperature (°C),relative humidity of the measurement (%),span deviation,mass concentration of particles derived from Lorenz-Mie calculation of OPC scattering (μg/m³),mass concentration of particles derived from Lorenz-Mie calculation of OPC scattering (μg/m³),mass concentration of particles derived from Lorenz-Mie calculation of OPC scattering (μg/m³)
DateTimeUTC,F1_M11,P_M11,Q1_M11,Q2_M11,T1_M11,T2_M11,T3_M11,T4_M11,T5_M11,U1_M11,ZSPAN_M11,X0_M11,X2_M11,X1_M11
2024-04-21 06:00:00,SystemResetWarning,0838.0,5.00,000.00,019.3,018.8,000.0,027.8,021.1,023.5,0002.0,0010.58,0008.11,0007.83
2024-04-21 06:01:00,SystemResetWarning,0837.9,5.00,000.00,019.3,018.8,000.0,027.8,021.1,023.4,0002.1,0010.60,0008.11,0007.82
2024-04-21 06:02:00,SystemResetWarning,0837.9,5.01,000.00,019.3,018.8,000.0,027.8,021.1,023.4,0002.4,0010.60,0008.12,0007.82
2024-04-21 06:03:00,SystemResetWarning,0837.9,5.01,000.00,019.3,018.8,000.0,027.8,021.1,023.5,0002.9,0010.59,0008.11,0007.80
2024-04-21 06:04:00,SystemResetWarning,0838.0,5.00,000.00,019.3,018.8,000.0,027.8,021.1,023.5,0002.9,0010.54,0008.09,0007.80
2024-04-21 06:05:00,SystemResetWarning,0838.0,5.00,000.00,019.3,018.8,000.0,027.8,021.1,023.5,0002.6,0010.45,0008.08,0007.79
2024-04-21 06:06:00,SystemResetWarning,0838.0,4.99,000.00,019.3,018.8,000.0,027.8,021.1,023.5,0002.4,0010.32,0008.05,0007.77
2024-04-21 06:07:00,SystemResetWarning,0838.0,4.99,000.00,019.3,018.8,000.0,027.8,021.1,023.5,0002.1,0010.29,0008.02,0007.75
2024-04-21 06:08:00,SystemResetWarning,0838.0,4.99,000.00,019.3,018.8,000.0,027.8,021.1,023.5,0002.0,0010.21,0007.99,0007.73
2024-04-21 06:09:00,SystemResetWarning,0837.9,5.00,000.00,019.3,018.8,000.0,027.8,021.1,023.5,0001.9,0010.07,0007.95,0007.69
2024-04-21 06:10:00,SystemResetWarning,0837.9,5.00,000.00,019.3,018.8,000.0,027.8,021.1,023.5,0001.7,0010.05,0007.92,0007.66
2024-04-21 06:11:00,SystemResetWarning,0838.0,5.00,000.00,019.3,018.8,000.0,027.8,021.1,023.4,0001.8,0010.05,0007.91,0007.64
2024-04-21 06:12:00,SystemResetWarning,0838.0,5.01,000.00,019.3,018.8,000.0,027.8,021.1,023.4,0001.3,0010.02,0007.89,0007.62
2024-04-21 06:13:00,SystemResetWarning,0838.0,5.02,000.00,019.3,018.8,000.0,027.8,021.1,023.4,0001.0,0010.64,0007.86,0007.59
2024-04-21 06:14:00,SystemResetWarning,0838.0,4.99,000.00,019.3,018.8,000.0,027.8,021.1,023.4,0000.6,0010.84,0007.84,0007.58
2024-04-21 06:15:00,SystemResetWarning,0838.0,5.00,000.00,019.3,018.8,000.0,027.8,021.1,023.5,0000.4,0010.90,0007.84,0007.57
2024-04-21 06:16:00,SystemResetWarning,0838.0,4.99,000.00,019.3,018.8,000.0,027.8,021.1,023.5,0000.5,0010.86,0007.82,0007.56
2024-04-21 06:17:00,SystemResetWarning,0837.9,4.99,000.00,019.3,018.8,000.0,027.8,021.1,023.4,0000.6,0010.84,0007.80,0007.55
2024-04-21 06:18:00,SystemResetWarning,0838.0,5.01,000.00,019.3,018.8,000.0,027.8,021.1,023.4,0000.7,0010.83,0007.79,0007.54
2024-04-21 06:19:00,SystemResetWarning,0838.0,5.00,000.00,019.3,018.8,000.0,027.8,021.1,023.5,0000.5,0010.79,0007.76,0007.52
2024-04-21 06:20:00,SystemResetWarning,0837.8,5.01,000.00,019.3,018.8,000.0,027.8,021.1,023.5,0000.5,0010.81,0007.76,0007.52
2024-04-21 06:21:00,SystemResetWarning,0837.8,5.01,000.00,019.3,018.8,000.0,027.8,021.1,023.5,0000.7,0010.87,0007.77,0007.52
2024-04-21 06:22:00,SystemResetWarning,0837.8,5.00,000.00,019.3,018.8,000.0,027.8,021.1,023.5,0000.7,0010.90,0007.80,0007.53
2024-04-21 06:23:00,SystemResetWarning,0837.9,4.99,000.00,019.3,018.8,000.0,027.8,021.1,023.5,0001.2,0010.90,0007.82,0007.55
2024-04-21 06:24:00,SystemResetWarning,0838.0,4.99,000.00,019.3,018.8,000.0,027.8,021.1,023.5,0001.3,0010.32,0007.84,0007.57
2024-04-21 06:25:00,SystemResetWarning,0838.0,5.00,000.00,019.3,018.7,000.0,027.8,021.1,023.5,0001.5,0010.23,0007.84,0007.59
2024-04-21 06:26:00,SystemResetWarning,0838.0,5.01,000.00,019.3,018.7,000.0,027.8,021.1,023.5,0001.4,0010.15,0007.83,0007.59
2024-04-21 06:27:00,SystemResetWarning,0838.0,5.01,000.00,019.3,018.7,000.0,027.8,021.1,023.5,0001.3,0010.08,0007.81,0007.58
2024-04-21 06:28:00,SystemResetWarning,0838.0,4.99,000.00,019.3,018.7,000.0,027.8,021.0,023.5,0001.0,0010.05,0007.82,0007.58
2024-04-21 06:29:00,SystemResetWarning,0837.9,4.99,000.00,019.3,018.7,000.0,027.8,021.1,023.5,0001.2,0009.98,0007.79,0007.56
2024-04-21 06:30:00,SystemResetWarning,0837.9,4.99,000.00,019.3,018.7,000.0,027.8,021.1,023.5,0001.5,0009.98,0007.77,0007.53
2024-04-21 06:31:00,SystemResetWarning,0838.0,5.00,000.00,019.3,018.7,000.0,027.8,021.0,023.5,0001.4,0009.89,0007.73,0007.49
2024-04-21 06:32:00,SystemResetWarning,0838.0,5.01,000.00,019.3,018.7,000.0,027.8,021.0,023.5,0001.5,0009.75,0007.67,0007.45
2024-04-21 06:33:00,SystemResetWarning,0838.0,5.00,000.00,019.3,018.7,000.0,027.8,021.0,023.5,0001.3,0009.89,0007.60,0007.41
2024-04-21 06:34:00,SystemResetWarning,0837.9,5.01,000.00,019.3,018.7,000.0,027.8,021.0,023.5,0000.9,0010.43,0007.55,0007.37
2024-04-21 06:35:00,SystemResetWarning,0837.9,4.99,000.00,019.3,018.7,000.0,027.8,021.0,023.5,0001.0,0010.89,0007.49,0007.33
2024-04-21 06:36:00,SystemResetWarning,0837.9,5.00,000.00,019.3,018.7,000.0,027.8,021.0,024.0,0001.1,0010.94,0007.45,0007.28
2024-04-21 06:37:00,SystemResetWarning,0837.9,4.99,000.00,019.3,018.7,000.0,027.8,021.0,024.5,0001.0,0010.85,0007.41,0007.24
2024-04-21 06:38:00,SystemResetWarning,0837.9,5.00,000.00,019.3,018.7,000.0,027.8,021.0,023.8,0000.8,0010.86,0007.41,0007.23
2024-04-21 06:39:00,SystemResetWarning,0838.0,5.00,000.00,019.3,018.7,000.0,027.8,021.0,023.6,0001.2,0010.87,0007.39,0007.22
2024-04-21 06:40:00,SystemResetWarning,0838.0,5.00,000.00,019.3,018.7,000.0,027.8,021.0,023.6,0000.8,0011.14,0007.38,0007.19
2024-04-21 06:41:00,SystemResetWarning,0838.0,5.00,000.00,019.3,018.7,000.0,027.8,021.0,023.6,0000.4,0011.55,0007.38,0007.20
2024-04-21 06:42:00,SystemResetWarning,0838.0,5.00,000.00,019.3,018.7,000.0,027.8,021.0,023.6,0000.8,0011.56,0007.41,0007.22
2024-04-21 06:43:00,SystemResetWarning,0838.0,5.01,000.00,019.3,018.7,000.0,027.8,021.0,023.6,0000.8,0011.65,0007.45,0007.24
2024-04-21 06:44:00,SystemResetWarning,0837.8,5.00,000.00,019.3,018.7,000.0,027.8,021.0,023.6,0000.7,0011.60,0007.47,0007.24
2024-04-21 06:45:00,SystemResetWarning,0837.8,4.99,000.00,019.3,018.7,000.0,027.8,021.0,023.7,0000.8,0010.88,0007.47,0007.23
2024-04-21 06:46:00,SystemResetWarning,0837.8,4.99,000.00,019.3,018.7,000.0,027.8,021.0,023.6,0000.8,0010.34,0007.48,0007.24
2024-04-21 06:47:00,SystemResetWarning,0837.8,5.00,000.00,019.3,018.7,000.0,027.8,021.0,023.6,0000.6,0009.98,0007.47,0007.24
2024-04-21 06:48:00,SystemResetWarning,0837.9,5.01,000.00,019.3,018.7,000.0,027.8,021.0,023.6,0000.7,0010.00,0007.49,0007.25
2024-04-21 06:49:00,SystemResetWarning,0837.9,5.01,000.00,019.3,018.7,000.0,027.8,021.0,023.6,0000.9,0009.98,0007.48,0007.25
2024-04-21 06:50:00,SystemResetWarning,0838.0,5.00,000.00,019.3,018.7,000.0,027.8,021.0,023.6,0000.8,0009.98,0007.48,0007.25
2024-04-21 06:51:00,SystemResetWarning,0837.9,4.99,000.00,019.3,018.7,000.0,027.8,021.0,023.5,0000.8,0009.86,0007.48,0007.25
2024-04-21 06:52:00,SystemResetWarning,0837.8,5.00,000.00,019.3,018.7,000.0,027.8,021.0,023.5,0000.8,0009.28,0007.48,0007.26
2024-04-21 06:53:00,SystemResetWarning,0837.8,5.01,000.00,019.2,018.7,000.0,027.8,021.0,023.5,0000.2,0009.32,0007.50,0007.27
2024-04-21 06:54:00,SystemResetWarning,0837.8,5.00,000.00,019.2,018.7,000.0,027.8,021.0,023.5,0000.1,0009.28,0007.47,0007.25
2024-04-21 06:55:00,SystemResetWarning,0837.8,5.00,000.00,019.2,018.7,000.0,027.8,021.0,023.5,0000.5,0009.24,0007.46,0007.25
2024-04-21 06:56:00,SystemResetWarning,0837.8,5.00,000.00,019.2,018.7,000.0,027.8,021.0,023.6,0000.1,0009.16,0007.44,0007.25
2024-04-21 06:57:00,SystemResetWarning,0837.8,5.01,000.00,019.2,018.7,000.0,027.8,021.0,023.6,0000.2,0009.14,0007.44,0007.25
2024-04-21 06:58:00,SystemResetWarning,0837.7,5.00,000.00,019.2,018.7,000.0,027.8,021.0,023.6,0000.5,0009.16,0007.45,0007.25
2024-04-21 06:59:00,SystemResetWarning,0837.8,5.01,000.00,019.2,018.7,000.0,027.8,021.0,023.5,0000.6,0009.21,0007.46,0007.26
